Location: Seven Kings
(51.5667°N, 0.1000°E)
Time: 12:07:18
(UTC+00:00)

CZ-2C R/B - Pass Details

Date: 29 October 2020
Orbit: 703 x 909 km, 98.1° (Epoch: 24 November)

Event Time Altitude Azimuth Distance (km) Brightness Sun altitude
Rises 17:37:14 0° 139° (SE) 3,516 6.1 -9.8°
Reaches altitude 10° 17:39:47 10° 132° (SE) 2,565 5.3 -10.2°
Maximum altitude 17:45:05 40° 65° (ENE) 1,274 3.7 -11.0°
Drops below altitude 10° 17:50:12 10° 358° (N) 2,484 5.6 -11.8°
Sets 17:52:39 0° 351° (N) 3,393 6.4 -12.2°
